www.pogodaiklimat.ru

Погода и климат >> Архив погоды >> Россия >> Хабаровский край >> Бичевая


ПОГОДА в Бичевой

  • Прогноз погоды в Бичевой
  • Монитор погоды в Бичевой

АРХИВ ПОГОДЫ в Бичевой

Время (UTC), дата Ветер
(напр.,м/с)
 
Видим.   Явления Облачность Т
(С)
Тd
(С)
f
(%)
Тe
(С)
Тes
(С)
Комфортность P
(гПа)
Po
(гПа)
Тmin
(С)
Tmax
(С)
R
(мм)
R24
(мм)
S
(см)
09 18.03 Ю 2
{10}
50 км 8/0
[Cs]
+7.3 -7.8 33 +6 +6 1000.3 987.7 +10.5
12 18.03 Ю 2 50 км 10/0
[Ac trans]
+4.4 -7.1 43 +2 +2 1002.1 989.3
15 18.03 З 3 50 км 10/0
[Ac trans Ci fib]
+4.4 -9.4 36 +2 +2 1004.9 992.0
18 18.03 З 2 50 км ясно +0.9 -8.9 48 -2 -2 1007.8 994.7
21 18.03 штиль 0
{7}
50 км 4/0
[Cs]
-3.7 -8.4 70 -4 -4 1009.8 996.6 -3.7
00 19.03 С 3 4000 м дым ясно -2.6 -9.5 59 -7 -3 1013.7 1000.5 -4.8
03 19.03 С 3 50 км ясно +2.9 -10.7 36 -0 +8 1014.4 1001.3
06 19.03 С 3 50 км 5/0
[Ci fib]
+3.8 -13.0 28 +1 +3 1014.3 1001.3
09 19.03 С 3
{7}
50 км 3/0
[Ci fib]
+0.7 -12.7 36 -3 -3 1013.2 1000.0 +4.2
12 19.03 С 3 4000 м дым 10/0
[As trans]
-1.6 -12.9 42 -6 -6 1009.7 996.6
15 19.03 С 2 4000 м дым 10/0
[As op]
-2.2 -11.7 48 -5 -5 1007.9 994.7
18 19.03 С 2 50 км 10/0
[As op]
-3.4 -11.6 53 -7 -7 1005.3 992.0
21 19.03 С 3
{8}
50 км 10/4 600 м
[Sc Ac und]
-4.1 -9.3 67 -9 -9 1003.4 990.3 -4.1
00 20.03 С 4 4000 м дым 10/10 600 м
[Sc]
-4.6 -7.6 80 -11 -11 1007.0 993.8 -4.6
03 20.03 С 4 20 км 10 баллов -5.1 -10.3 67 -11 -11 1012.1 998.7
06 20.03 С 4 50 км 6 баллов -2.3 -9.7 57 -8 -6 1014.6 1001.3
09 20.03 С 2
{9}
20 км 8/0
[Cs]
-3.7 -10.1 61 -7 -7 1017.4 1004.0 -2.2
12 20.03 С 2 20 км 2 балла -5.8 -10.9 67 -10 -10 1017.5 1004.0
15 20.03 С 2 20 км 10/0
[As trans]
-6.9 -11.3 71 -11 -11 1017.6 1004.0
18 20.03 С 2 50 км 10 баллов -6.7 -11.4 69 -11 -11 1014.8 1001.3
21 20.03 С 2
{6}
20 км 10/0
[As op]
-8.2 -12.6 71 -13 -13 1012.4 999.0 -8.3
00 21.03 С 3 50 км слаб. снег 10/0
[As op]
-7.9 -10.5 82 -14 -13 1010.3 996.9 -8.7
03 21.03 С 3 4000 м слаб. снег 10/0
[As op]
-6.7 -8.9 84 -12 -12 1009.5 996.0
06 21.03 С 3 4000 м слаб. снег 10 баллов -4.8 -6.9 85 -10 -10 1006.6 993.3
09 21.03 С 2
{7}
10 км слаб. снег 10/10 600 м
[Frnb Ns]
-5.0 -6.7 88 -9 -9 1006.6 993.3 -4.7 6
12 21.03 С 3 10 км слаб. снег 10/8 600 м
[Frnb As op]
-6.2 -7.9 88 -12 -12 1005.8 992.5
15 21.03 С 2 10 км слаб. снег 10/6 600 м
[Frnb As trans]
-7.0 -8.9 86 -11 -11 1008.2 994.7
18 21.03 С 3 20 км 10 баллов -8.6 -10.7 85 -14 -14 1008.3 994.7
21 21.03 С 2
{8}
10 км слаб. снег 10/5 600 м
[Frnb As trans]
-9.9 -12.1 84 -14 -14 1009.5 996.0 -9.9 1 6
00 22.03 С 3 20 км в посл. час снег 10/3 600 м
[Sc Ac trans Ci fib]
-8.4 -12.9 70 -14 -12 1011.5 998.1 -10.3
03 22.03 С 3 50 км 8/3 600 м
[Cu med, cong Ac trans]
-4.8 -14.9 45 -10 -7 1013.4 1000.0
06 22.03 С 3
{15}
50 км 10 баллов -3.0 -15.0 39 -7 -7 1013.3 1000.0
09 22.03 В 1
{15}
50 км 10 баллов -4.5 -15.5 42 -6 -6 1013.4 1000.0 -2.4 0.0
12 22.03 Ю 1 50 км 5 баллов -10.7 -14.9 71 -13 -13 1015.1 1001.3
15 22.03 Ю 2 50 км 10 баллов -8.5 -13.2 69 -13 -13 1013.6 1000.0
18 22.03 ЮЗ 2 50 км 10 баллов -12.2 -14.6 82 -17 -17 1013.8 1000.0
21 22.03 Ю 1 50 км 3/0
[Ac trans]
-13.7 -15.7 85 -16 -16 1013.9 1000.0 -13.7 5
00 23.03 ЮЗ 3 50 км ясно -6.5 -17.0 43 -12 -7 1012.2 998.7 -14.6
03 23.03 З 4 50 км 4 балла -3.4 -17.7 32 -9 -4 1010.6 997.3
06 23.03 З 4 50 км 7 баллов -3.4 -17.0 34 -9 -8 1009.3 996.0
09 23.03 З 3
{10}
50 км 8/8 600 м
[Cu Sc]
-5.5 -15.5 45 -10 -10 1010.7 997.3 -3.0
12 23.03 ЮЗ 2 50 км ясно -8.7 -16.3 54 -13 -13 1010.9 997.3
15 23.03 ЮВ 2 50 км ясно -13.7 -17.2 75 -18 -18 1011.2 997.3
18 23.03 ЮЗ 1 50 км ясно -15.2 -18.2 78 -18 -18 1011.2 997.3
21 23.03 Ю 2
{8}
50 км ясно -17.0 -19.3 82 -22 -22 1009.8 995.9 -17.1 4
00 24.03 Ю 3 50 км ясно -8.3 -16.9 50 -14 -9 1009.6 996.0
03 24.03 З 2 50 км 2 балла -1.4 -19.3 24 -4 +5 1007.9 994.7
06 24.03 З 2 9 баллов 22 992.0
09 24.03 штиль 0
{8}
50 км 9/0
[Ac lent Cs]
-0.9 -14.8 34 -1 -1 1004.6 992.0 +0.8
12 24.03 ЮВ 1 9 баллов 53 993.3
15 24.03 З 1 9 баллов 74 993.3
18 24.03 ЮЗ 1 ясно 78 992.0
21 24.03 Ю 2
{5}
50 км 10/0
[Ac As]
-5.3 -10.9 65 -9 -9 1004.2 991.0 -9.0 3
00 25.03 Ю 1 9 баллов 56 992.0
03 25.03 ЮВ 1 слаб. снег н/о 76 992.0
06 25.03 С 1 50 км 2 балла +4.9 -4.6 50 +4 +10 1003.5 990.7

 

Местоположение метеостанции Бичевая (Хабаровский край, Россия): широта 47.77 долгота 135.60 высота над уровнем моря 105 м.

В архиве по умолчанию представлена погода в Бичевой за последнюю неделю. Архивные данные за месяц целиком и за предыдущие месяцы, начиная с января 2011 года, Вы можете получить, выбрав интересующий диапазон дат из раскрывающегося списка и нажав кнопку "Ввод!".


*Определитесь, кто Вы:
робот инопланетянин человек

Внимание! Время в таблицах - всемирное. Для получения местного времени необходимо прибавить поправку, которая равна 10 ч.

Смотрите также архив погоды в соседних городах и на ближайших метеорологических станциях:

Погода в Оборе (Хабаровский край, Россия) (35 км)
Погода в Георгиевке (Хабаровский край, Россия) (36 км)
Погода в Гвасюгах (Хабаровский край, Россия) (39 км)
Погода в Хоре (Хабаровский край, Россия) (50 км)
Погода в Вяземском (Хабаровский край, Россия) (73 км)
Погода в Князе-Волконском (Хабаровский край, Россия) (80 км)
Погода в Хабаровске 21 км (Хабаровский край, Россия) (80 км)
Погода в Бычихе (Хабаровский край, Россия) (83 км)
Погода в Хабаровске Аэр. Большой (Хабаровский край, Россия) (83 км)
Погода в Хабаровске (Хабаровский край, Россия) (91 км)

Пояснения к столбцам:

Ветер - указаны скорость ветра в м/с - средняя за 10 мин, порывы в срок и между сроками (в фигурных скобках) и направление, откуда дует ветер: С - северный, СВ - северо-восточный, В - восточный, ЮВ - юго-восточный, Ю - южный, ЮЗ - юго-западный, З - западный, СЗ - северо-западный.
Видимость - горизонтальная дальность видимости в метрах или километрах. При видимости от 1 до 10 км при отсутствии осадков обычно наблюдается дымка, при ухудшении видимости до 1 км и менее - туман. В сухую погоду видимость может ухудшаться дымом, пылью или мглою.
Явления - указаны атмосферные явления, наблюдавшиеся в срок или в последний час перед сроком; фигурными скобками обозначены явления, наблюдавшиеся между сроками (за 1-3 часа до срока); квадратными скобками обозначены град или гололедные отложения с указанием их диаметра в мм.
Облачность - указаны через наклонную черту общая и нижняя облачность в баллах и высота нижней границы облаков в метрах; квадратными скобками обозначены формы облаков: Ci - перистые, Cs - перисто-слоистые, Cc - перисто-кучевые, Ac - высококучевые, As - высокослоистые, Sc - слоисто-кучевые, Ns - слоисто-дождевые, Cu - кучевые, Cb - кучево-дождевые. Подробнее классификацию облаков см. в Атласе облаков (PDF).
T - Температура воздуха - температура, измеренная на высоте 2 м над землей.
Td - Температура точки росы - температура, при понижении до которой содержащийся в воздухе водяной пар достигнет насыщения.
f - Относительная влажность воздуха - влажноcть воздуха, измеренная на высоте 2 м над землей.
Te - Эффективная температура - температура, которую ощущает одетый по сезону человек в тени. Характеристика душности погоды. При расчете учитывается влияние влажности воздуха и скорости ветра на теплоощущения человека.
Tes - Эффективная температура на солнце - температура, которую ощущает человек, с поправкой на солнечный нагрев. Характеристика знойности погоды. Зависит от высоты солнца над горизонтом, облачности и скорости ветра. Ночью, в пасмурную погоду, а также при ветре 12 м/с и более поправка равна нулю.
P - Атмосферное давление - приведенное к уровню моря атмосферное давление.
Po - Атмосферное давление - измеренное на уровне метеостанции атмосферное давление.
Tmin - Минимальная температура - минимум температуры воздуха на высоте 2 м над землей.
Tmax - Максимальная температура - максимум температуры воздуха на высоте 2 м над землей.
R - Количество осадков - Количество выпавших осадков за период времени, мм. При наведении курсора мыши на число - период времени, за который выпало указанное количество осадков.
R24 - Количество осадков - Количество выпавших осадков за 24 часа, мм.
S - Снежный покров - Высота снежного покрова, см. При наведении курсора мыши на число - состояние снежного покрова и степень покрытия местности в баллах.